Location: NCO
(38.4404°N, 77.1340°W)
Time: 22:35:29
(UTC-05:00)

OTV 5 (USA 277) - Visible Passes

Search period start: 15 December 2017 00:00
Search period end: 25 December 2017 00:00
Orbit: 404 x 417 km, 43.0° (Epoch: 07 September)

Date Brightness Start Highest point End Pass type
(mag) Time Alt. Az. Time Alt. Az. Time Alt. Az.
15 Dec ? 18:09:34 10° W 18:12:40 35° SSW 18:15:47 10° SE visible
16 Dec ? 17:18:22 10° WNW 17:21:40 54° SSW 17:24:58 10° SE visible
17 Dec ? 18:05:35 10° WSW 18:07:34 15° SW 18:09:33 10° S visible
18 Dec ? 17:13:56 10° W 17:16:39 23° SW 17:19:22 10° SSE visible
